Find Starlink 33641

NORAD ID: 63718 Int'l Des: 2025-087 Owner: SPXS Country: US Constellation: starlink operational
LEOCIRCULAR

当前视图

正在加载3D地球...

About Starlink 33641

Starlink 33641 (NORAD 63718) is a starlink constellation satellite (v2 mini) launched Apr 28, 2025 by SPXS of US. It operates in LEO, CIRCULAR orbit with a mass of 575.00 kg.

关于 Starlink 33641

正在加载描述...

即将过境

Passes for default location (London). Set your location on the main map for personalized predictions.

高度历史

Loading altitude history...

两行轨道根数

1 63718U 25087X 26194.70389690 .00014642 00000-0 48241-3 0 9990
2 63718 53.1609 353.4681 0001111 108.2698 251.8424 15.31716723 68500
Epoch: Jul 13, 2026 • Age: 15 hours

当前状态

高度 473.6 km
远地点 / 近地点 N/A
速度 7.63 km/s
星下点 40.58°N, 85.77°E
发射日期 Apr 28, 2025
运行时间 1.2 years
类型 internet

技术详情

分类 Payload
质量 575.00 kg
干质量 530.00 kg
总质量 575.00 kg
长度 0.30 m
直径 4.10 m
跨度 29.00 m
形状 Box + pan
制造商 SPXS
平台类型 Starlink V2MO
阶段状态 In Orbit
所有者/国家 SPXS/US

Most Searched